Regional Weather Roundup
Issued by NWS

Home | Current Version | Previous Version | Text Only | Print | Product List | Glossary On
Versions: 1 2 3 4 5 6 7 8 9 10 11 12 13 14 15 16 17 18 19 20 21 22 23 24 25 26 27 28 29 30 31 32 33 34 35 36 37 38 39 40 41 42 43 44 45 46 47 48 49 50
592
ASUS42 KFFC 290010
RWRGA
WEATHER ROUNDUP FOR GEORGIA
NATIONAL WEATHER SERVICE PEACHTREE CITY GA
800 PM EDT WED JUN 28 2017

NOTE: "FAIR" INDICATES FEW OR NO CLOUDS BELOW 12,000 FEET WITH NO
SIGNIFICANT WEATHER AND/OR OBSTRUCTIONS TO VISIBILITY.

* = USE WITH CAUTION. THE STATIONS MARKED WITH AN ASTERISK MAY NOT
REPORT WEATHER SUCH AS PRECIPITATION, FOG, OR THUNDER AND ARE NOT
QUALITY CONTROLLED BY NWS.

THE REMARK "TC" DENOTES TEMPERATURE READING IN DEGREES CELSIUS.

GAZ001>058-290100-
NORTH GEORGIA

CITY           SKY/WX    TMP DP  RH WIND       PRES   REMARKS
ATLANTA        PTCLDY    82  63  52 S8        30.12R
6HR MIN TEMP:  82; 6HR MAX TEMP:  87;

ATHENS         CLEAR     80  67  64 CALM      30.13R
6HR MIN TEMP:  80; 6HR MAX TEMP:  87;

CHAMBLEE       MOCLDY    82  64  54 SE9       30.12R
6HR MIN TEMP:  82; 6HR MAX TEMP:  86;

PEACHTREE CITY PTCLDY    81  67  62 SE6       30.11S
6HR MIN TEMP:  80; 6HR MAX TEMP:  87;

ROME           CLEAR     84  65  52 SE5       30.07S
6HR MIN TEMP:  84; 6HR MAX TEMP:  88;

WEST ATLANTA   CLEAR     85  63  47 SE6       30.10S
6HR MIN TEMP:  83; 6HR MAX TEMP:  88;

GAINESVILLE    CLEAR     79  64  60 E6        30.17R
6HR MIN TEMP:  79; 6HR MAX TEMP:  84;

CARTERSVILLE   CLEAR     80  71  74 CALM      30.10S
6HR MIN TEMP:  80; 6HR MAX TEMP:  87;



CITY           SKY/WX    TMP DP  RH WIND       PRES   REMARKS
DALTON*        CLEAR     82  63  51 SE6       30.10R
LAWRENCEVILLE* PTCLDY    81  66  61 E9        30.15R
MARIETTA       PTCLDY    83  61  47 SE7       30.11S
KENNESAW*      PTCLDY    86  59  39 SE5       30.11F
CANTON*        CLEAR     82  63  51 CALM      30.15S
$$

GAZ059>098-102>109-290100-
CENTRAL GEORGIA

CITY           SKY/WX    TMP DP  RH WIND       PRES   REMARKS
AUGUSTA-BUSH   CLEAR     84  65  52 SE6       30.11R
6HR MIN TEMP:  84; 6HR MAX TEMP:  90;

AUGUSTA-DANIEL CLEAR     86  59  39 SE8       30.13R
6HR MIN TEMP:  86; 6HR MAX TEMP:  90;

COLUMBUS       CLOUDY    86  63  45 SE10      30.07R
6HR MIN TEMP:  86; 6HR MAX TEMP:  89;

MACON          CLEAR     84  62  47 SE8       30.09S
6HR MIN TEMP:  84; 6HR MAX TEMP:  90;

ROBINS AFB     CLEAR     83  64  51 E6        30.09R


CITY           SKY/WX    TMP DP  RH WIND       PRES   REMARKS
LAGRANGE*      CLOUDY    84  66  54 SE7       30.09S
SYLVANIA*      CLEAR     82  70  66 SE5       30.15R
MILLEDGEVILLE* PTCLDY    81  68  65 CALM      30.11S
$$

GAZ099>101-110>166-290100-
SOUTH GEORGIA

CITY           SKY/WX    TMP DP  RH WIND       PRES   REMARKS
SAVANNAH       MOCLDY    82  67  60 E17       30.13R
6HR MIN TEMP:  82; 6HR MAX TEMP:  88;

VALDOSTA       MOCLDY    81  71  71 E3        30.08R
6HR MIN TEMP:  80; 6HR MAX TEMP:  85;

ALMA           CLOUDY    82  66  58 E5        30.10S
6HR MIN TEMP:  82; 6HR MAX TEMP:  88;

ST SIMONS      MOCLDY    82  73  74 E13       30.12R
6HR MIN TEMP:  82; 6HR MAX TEMP:  85;

FT STEWART     PTCLDY    81  69  65 E10       30.10S
ALBANY         CLOUDY    82  72  71 E9        30.09R
HUNTER AFB     PTCLDY    81  71  71 E12       30.11R
MOODY AFB      MOCLDY    80  72  76 E5        30.07S
BRUNSWICK      CLOUDY    81  73  78 E12       30.12S


CITY           SKY/WX    TMP DP  RH WIND       PRES   REMARKS
BAINBRIDGE*    CLOUDY    82  77  83 SW5       30.06R HX  91
MOULTRIE*      CLOUDY    79  72  78 E3        30.09R
VIDALIA*       CLEAR     82  68  61 E10       30.12R
WAYCROSS*      CLOUDY    83  75  75 E6        30.11R HX  91
DOUGLAS*       CLOUDY    81  64  57 E6        30.11S
$$




USA.gov is the U.S. government's official web portal to all federal, state and local government web resources and services.